Regional Weather Roundup
Issued by NWS Goodland, KS

Home | Current Version | Previous Version | Graphics & Text | Print | Product List | Glossary On
Versions: 1 2 3 4 5 6 7 8 9 10 11 12 13 14 15 16 17 18 19 20 21 22 23 24 25 26 27 28 29 30 31 32 33 34 35 36 37 38 39 40 41 42 43 44 45 46 47 48 49 50
000
ASUS43 KGLD 191608
RWRGLD

GOODLAND FORECAST AREA HOURLY WEATHER ROUNDUP
NATIONAL WEATHER SERVICE GOODLAND KS
900 AM MST SUN NOV 19 2017

...OFFICIAL OBSERVATIONS...

CITY           SKY/WX    TMP DP  RH WIND       PRES   REMARKS
GOODLAND KS    SUNNY     41  17  38 S12       30.16F
HILL CITY KS   SUNNY     41  26  55 W6        30.21F
IMPERIAL NEB   SUNNY     35  23  61 W14       30.14F
MCCOOK NEB     SUNNY     35  24  64 SW9       30.17F
AKRON CO       CLOUDY    35  19  52 W12       30.13F
BURLINGTON CO  CLOUDY    42  20  41 SW13      30.17F
LIMON CO       CLOUDY    32  24  72 N3        30.18S
$$

...UNOFFICIAL OBSERVATIONS...

CITY           SKY/WX    TMP DP  RH WIND       PRES   REMARKS
COLBY KS       SUNNY     43  28  56 S12       30.19F
LENORA KS        N/A     44  32  63 SW8         N/A
NORTON KS      SUNNY     39  19  45 SW10      30.17
SHARON SPRINGS   N/A     39  22  51 SW7         N/A
TRENTON NEB      N/A     37  32  82 W7          N/A
KIT CARSON CO    N/A     37  22  54 MISG        N/A
YUMA CO        FAIR      36  27  69 W7        30.13F
$$



USA.gov is the U.S. government's official web portal to all federal, state and local government web resources and services.